TimeCST,TemperatureF,Dew PointF,Humidity,Sea Level PressureIn,VisibilityMPH,Wind Direction,Wind SpeedMPH,Gust SpeedMPH,PrecipitationIn,Events,Conditions,WindDirDegrees,DateUTC
12:53 AM,37.0,26.1,65,30.08,10.0,South,5.8,-,N/A,,Clear,170,2013-03-04 06:53:00
1:53 AM,37.9,26.1,62,30.08,10.0,South,5.8,-,N/A,,Clear,180,2013-03-04 07:53:00
2:53 AM,39.0,26.1,60,30.05,10.0,SSE,8.1,-,N/A,,Clear,160,2013-03-04 08:53:00
3:53 AM,39.9,28.0,63,30.04,10.0,South,9.2,-,N/A,,Clear,170,2013-03-04 09:53:00
4:53 AM,41.0,28.0,60,30.03,10.0,SSE,10.4,-,N/A,,Clear,160,2013-03-04 10:53:00
5:53 AM,39.9,28.9,65,30.03,10.0,South,10.4,-,N/A,,Clear,170,2013-03-04 11:53:00
6:53 AM,41.0,30.0,65,30.03,10.0,South,11.5,-,N/A,,Clear,180,2013-03-04 12:53:00
7:53 AM,45.0,30.9,58,30.03,10.0,South,10.4,-,N/A,,Clear,180,2013-03-04 13:53:00
8:53 AM,51.1,30.0,44,30.02,10.0,South,13.8,-,N/A,,Clear,170,2013-03-04 14:53:00
9:53 AM,57.9,30.0,35,30.00,10.0,South,17.3,-,N/A,,Clear,180,2013-03-04 15:53:00
10:53 AM,63.0,32.0,31,29.96,10.0,South,18.4,25.3,N/A,,Clear,170,2013-03-04 16:53:00
11:53 AM,66.9,35.1,31,29.91,10.0,South,21.9,29.9,N/A,,Clear,170,2013-03-04 17:53:00
12:53 PM,68.0,37.0,32,29.88,10.0,South,18.4,26.5,N/A,,Clear,180,2013-03-04 18:53:00
1:53 PM,66.9,36.0,32,29.84,10.0,South,23.0,28.8,N/A,,Clear,180,2013-03-04 19:53:00
2:53 PM,68.0,37.9,33,29.81,10.0,South,23.0,32.2,N/A,,Clear,170,2013-03-04 20:53:00
3:53 PM,68.0,41.0,37,29.79,10.0,South,24.2,29.9,N/A,,Clear,170,2013-03-04 21:53:00
4:53 PM,68.0,43.0,40,29.80,10.0,South,19.6,35.7,N/A,,Clear,180,2013-03-04 22:53:00
5:53 PM,64.0,46.0,52,29.81,10.0,South,16.1,-,N/A,,Clear,170,2013-03-04 23:53:00
6:53 PM,64.0,46.9,54,29.81,10.0,South,15.0,-,N/A,,Clear,170,2013-03-05 00:53:00
7:53 PM,63.0,48.0,58,29.82,10.0,South,15.0,24.2,N/A,,Mostly Cloudy,180,2013-03-05 01:53:00
8:53 PM,62.1,48.9,62,29.84,10.0,South,12.7,-,N/A,,Overcast,170,2013-03-05 02:53:00
9:53 PM,62.1,50.0,65,29.85,10.0,South,15.0,-,N/A,,Overcast,170,2013-03-05 03:53:00
10:53 PM,61.0,50.0,67,29.84,10.0,South,12.7,-,N/A,,Overcast,180,2013-03-05 04:53:00
11:53 PM,60.1,51.1,72,29.84,10.0,South,16.1,-,N/A,,Mostly Cloudy,180,2013-03-05 05:53:00